EA3BNF-1 Weather Reports


time (UTC)temp
C
wind
direction
speed
KPH
gust
KPH
rain 1hr
cm
rain 24hr
cm
rain mn
cm
humidity
%
barometer
mb
20260504222513 15 0.0 0.0 0.00 0.00 0.00 73 1012.6
20260504221417 15 0.0 0.0 0.00 0.00 0.00 72 1012.5
20260504220322 15 0.0 0.0 0.00 0.00 0.00 72 1012.4
20260504215226 15 0.0 0.0 0.00 0.00 0.00 71 1012.4
20260504214131 15 0.0 0.0 0.00 0.00 0.00 72 1012.5
20260504213035 15 0.0 0.0 0.00 0.00 0.00 72 1012.6
20260504211940 15 0.0 0.0 0.00 0.00 0.00 71 1012.7
20260504210844 16 0.0 0.0 0.00 0.00 0.00 71 1012.6
20260504205748 16 0.0 0.0 0.00 0.00 0.00 72 1012.6
20260504204653 16 0.0 0.0 0.00 0.00 0.00 70 1012.7
20260504203557 16 0.0 0.0 0.00 0.00 0.00 71 1012.5
20260504202500 16 0.0 0.0 0.00 0.00 0.00 69 1012.4
20260504201404 17 0.0 0.0 0.00 0.00 0.00 69 1012.3
20260504200307 17 0.0 0.0 0.00 0.00 0.00 69 1012.2
20260504195211 17 0.0 0.0 0.00 0.00 0.00 70 1012.1
20260504194115 17 0.0 0.0 0.00 0.00 0.00 70 1012.0
20260504193019 17 0.0 0.0 0.00 0.00 0.00 72 1012.0
20260504191923 17 0.0 0.0 0.00 0.00 0.00 71 1012.1
20260504190828 18 0.0 0.0 0.00 0.00 0.00 68 1012.1
20260504185733 18 0.0 0.0 0.00 0.00 0.00 69 1012.0
20260504184637 19 0.0 0.0 0.00 0.00 0.00 69 1012.1
20260504183541 19 0.0 0.0 0.00 0.00 0.00 68 1011.8
20260504182445 20 0.0 0.0 0.00 0.00 0.00 67 1011.8
20260504181350 20 0.0 0.0 0.00 0.00 0.00 69 1011.5
20260504180254 20 0.0 0.0 0.00 0.00 0.00 68 1011.4
20260504175159 20 0.0 0.0 0.00 0.00 0.00 67 1011.2
20260504174103 21 0.0 0.0 0.00 0.00 0.00 67 1011.0
20260504173008 21 0.0 0.0 0.00 0.00 0.00 66 1010.8
20260504171912 21 0.0 0.0 0.00 0.00 0.00 65 1010.8
20260504170816 21 0.0 0.0 0.00 0.00 0.00 65 1010.9
20260504160242 22 0.0 0.0 0.00 0.00 0.00 64 1010.8
20260504150804 22 0.0 0.0 0.00 0.00 0.00 63 1011.1
20260504141326 22 0.0 0.0 0.00 0.00 0.00 63 1011.5
20260504140231 23 0.0 0.0 0.00 0.00 0.00 62 1011.4
20260504130752 22 0.0 0.0 0.00 0.00 0.00 64 1011.6
20260504120218 22 0.0 0.0 0.00 0.00 0.00 68 1012.3
20260504100206 22 0.0 0.0 0.00 0.00 0.00 65 1012.5
20260504081249 21 0.0 0.0 0.00 0.00 0.00 66 1012.9
20260504080153 20 0.0 0.0 0.00 0.00 0.00 67 1013.0
20260504060142 17 0.0 0.0 0.00 0.00 0.00 73 1013.0
20260504050703 17 0.0 0.0 0.00 0.00 0.00 72 1012.9
20260504045607 17 0.0 0.0 0.00 0.00 0.00 72 1013.0
20260504044512 17 0.0 0.0 0.00 0.00 0.00 72 1013.0
20260504043416 17 0.0 0.0 0.00 0.00 0.00 72 1013.1
20260504042321 17 0.0 0.0 0.00 0.00 0.00 72 1013.1
20260504041225 17 0.0 0.0 0.00 0.00 0.00 72 1013.1
20260504040129 17 0.0 0.0 0.00 0.00 0.00 71 1013.3
20260504035034 17 0.0 0.0 0.00 0.00 0.00 72 1013.4
20260504033938 17 0.0 0.0 0.00 0.00 0.00 71 1013.4
20260504032842 17 0.0 0.0 0.00 0.00 0.00 71 1013.5
20260504031747 16 0.0 0.0 0.00 0.00 0.00 73 1013.4
20260504030651 16 0.0 0.0 0.00 0.00 0.00 72 1013.4
20260504025555 16 0.0 0.0 0.00 0.00 0.00 72 1013.5
20260504024459 16 0.0 0.0 0.00 0.00 0.00 72 1013.5
20260504023404 16 0.0 0.0 0.00 0.00 0.00 72 1013.3
20260504022308 16 0.0 0.0 0.00 0.00 0.00 71 1013.3
20260504021213 16 0.0 0.0 0.00 0.00 0.00 72 1013.3
20260504020117 16 0.0 0.0 0.00 0.00 0.00 72 1013.2
20260504015021 16 0.0 0.0 0.00 0.00 0.00 70 1013.4
20260504013925 17 0.0 0.0 0.00 0.00 0.00 71 1013.5
20260504012830 17 0.0 0.0 0.00 0.00 0.00 71 1013.7
20260504011734 17 0.0 0.0 0.00 0.00 0.00 71 1013.8
20260504010639 17 0.0 0.0 0.00 0.00 0.00 71 1014.0
20260504005543 17 0.0 0.0 0.00 0.00 0.00 71 1013.9
20260504004448 17 0.0 0.0 0.00 0.00 0.00 70 1014.0
20260504003352 17 0.0 0.0 0.00 0.00 0.00 69 1014.1
20260504002256 17 0.0 0.0 0.00 0.00 0.00 69 1014.2
20260504001201 17 0.0 0.0 0.00 0.00 0.00 70 1014.2
20260504000105 17 0.0 0.0 0.00 0.00 0.00 69 1014.2
20260503235010 17 0.0 0.0 0.00 0.00 0.00 69 1014.2
20260503233914 17 0.0 0.0 0.00 0.00 0.00 69 1014.1
20260503232818 17 0.0 0.0 0.00 0.00 0.00 69 1014.2
20260503231723 17 0.0 0.0 0.00 0.00 0.00 69 1014.4
20260503230627 17 0.0 0.0 0.00 0.00 0.00 69 1014.4
20260503225531 17 0.0 0.0 0.00 0.00 0.00 69 1014.4
20260503224435 17 0.0 0.0 0.00 0.00 0.00 69 1014.4